EWG543 EDDK-EDDS

Flight info

Callsign EWG543
Flight time 0h 37m
Altitude 23000
Route KUMIK1B KUMIK L603 BOMBI N850 KRH T128 BADSO BADSO2A
Aircraft A20N/M-SDE2E3FGHIRWXY/LB1

Departure

Time 2026-04-20 18:59
Airport Cologne Bonn Airport (EDDK)

Arrival

Time 2026-04-20 19:36
Airport Stuttgart Airport (EDDS)
Time Latitude Longitude Altitude Speed Heading
2026-04-20 18:26 50.88222 7.11857 236 ft 0 kts 216°
2026-04-20 18:47 50.88225 7.11860 236 ft 3 kts 216°
2026-04-20 18:47 50.88239 7.11877 236 ft 3 kts 216°
2026-04-20 18:47 50.88254 7.11894 235 ft 3 kts 216°
2026-04-20 18:48 50.88270 7.11905 235 ft 3 kts 157°
2026-04-20 18:48 50.88272 7.11904 235 ft 0 kts 145°
2026-04-20 18:49 50.88271 7.11904 235 ft 0 kts 145°
2026-04-20 18:50 50.88269 7.11907 235 ft 0 kts 143°
2026-04-20 18:50 50.88253 7.11936 233 ft 5 kts 127°
2026-04-20 18:51 50.88234 7.11978 235 ft 5 kts 127°
2026-04-20 18:51 50.88213 7.12022 233 ft 5 kts 127°
2026-04-20 18:51 50.88191 7.12070 235 ft 6 kts 127°
2026-04-20 18:51 50.88162 7.12131 233 ft 10 kts 126°
2026-04-20 18:52 50.88112 7.12242 233 ft 14 kts 126°
2026-04-20 18:52 50.88082 7.12360 236 ft 12 kts 123°
2026-04-20 18:52 50.88013 7.12479 234 ft 17 kts 136°
2026-04-20 18:52 50.87907 7.12608 234 ft 21 kts 171°
2026-04-20 18:53 50.87774 7.12687 233 ft 22 kts 134°
2026-04-20 18:53 50.87662 7.12850 234 ft 22 kts 138°
2026-04-20 18:53 50.87549 7.13017 234 ft 22 kts 137°
2026-04-20 18:53 50.87438 7.13178 236 ft 22 kts 137°
2026-04-20 18:54 50.87327 7.13340 237 ft 21 kts 137°
2026-04-20 18:54 50.87221 7.13495 240 ft 20 kts 137°
2026-04-20 18:54 50.87120 7.13640 243 ft 19 kts 137°
2026-04-20 18:54 50.87025 7.13778 246 ft 18 kts 137°
2026-04-20 18:55 50.86933 7.13912 247 ft 19 kts 136°
2026-04-20 18:55 50.86839 7.14045 250 ft 17 kts 139°
2026-04-20 18:55 50.86750 7.14133 255 ft 13 kts 163°
2026-04-20 18:55 50.86686 7.14207 259 ft 12 kts 137°
2026-04-20 18:56 50.86608 7.14319 261 ft 19 kts 138°
2026-04-20 18:56 50.86491 7.14489 261 ft 26 kts 137°
2026-04-20 18:56 50.86364 7.14671 267 ft 24 kts 138°
2026-04-20 18:56 50.86246 7.14843 272 ft 22 kts 137°
2026-04-20 18:57 50.86134 7.15005 275 ft 21 kts 137°
2026-04-20 18:57 50.86048 7.15173 277 ft 20 kts 101°
2026-04-20 18:57 50.86103 7.15348 276 ft 19 kts 23°
2026-04-20 18:57 50.86228 7.15332 276 ft 18 kts 348°
2026-04-20 18:58 50.86351 7.15276 271 ft 19 kts 338°
2026-04-20 18:58 50.86475 7.15178 270 ft 20 kts 324°
2026-04-20 18:58 50.86649 7.14932 265 ft 65 kts 317°
2026-04-20 18:58 50.87163 7.14186 262 ft 134 kts 317°
2026-04-20 18:59 50.87949 7.13043 527 ft 161 kts 316°
2026-04-20 18:59 50.88789 7.11849 1188 ft 162 kts 322°
2026-04-20 18:59 50.89839 7.11228 1873 ft 171 kts 359°
2026-04-20 18:59 50.91093 7.11785 2310 ft 201 kts 25°
2026-04-20 19:00 50.92350 7.12908 3026 ft 214 kts 32°
2026-04-20 19:00 50.93563 7.14389 3800 ft 227 kts 49°
2026-04-20 19:00 50.94469 7.16642 4374 ft 258 kts 63°
2026-04-20 19:00 50.95253 7.19315 5157 ft 274 kts 64°
2026-04-20 19:01 50.96088 7.22052 6319 ft 275 kts 63°
2026-04-20 19:01 50.96941 7.24776 7434 ft 277 kts 63°
2026-04-20 19:01 50.97800 7.27563 8453 ft 282 kts 67°
2026-04-20 19:01 50.98319 7.30568 9429 ft 286 kts 84°
2026-04-20 19:02 50.98200 7.33701 10349 ft 293 kts 101°
2026-04-20 19:02 50.97695 7.36958 10854 ft 317 kts 106°
2026-04-20 19:02 50.97025 7.40483 11256 ft 341 kts 107°
2026-04-20 19:02 50.96301 7.44153 11915 ft 354 kts 108°
2026-04-20 19:03 50.95553 7.47924 12743 ft 362 kts 108°
2026-04-20 19:03 50.94804 7.51700 13478 ft 366 kts 108°
2026-04-20 19:03 50.94034 7.55586 13890 ft 369 kts 108°
2026-04-20 19:03 50.93262 7.59479 13998 ft 371 kts 108°
2026-04-20 19:04 50.92483 7.63403 14002 ft 372 kts 108°
2026-04-20 19:04 50.91703 7.67326 13999 ft 373 kts 108°
2026-04-20 19:04 50.90898 7.71197 14195 ft 376 kts 112°
2026-04-20 19:04 50.89679 7.74874 15017 ft 379 kts 125°
2026-04-20 19:05 50.87968 7.78066 15941 ft 381 kts 134°
2026-04-20 19:05 50.86039 7.80967 16788 ft 384 kts 139°
2026-04-20 19:05 50.83974 7.83706 17580 ft 389 kts 141°
2026-04-20 19:05 50.81840 7.86359 18339 ft 393 kts 143°
2026-04-20 19:06 50.79650 7.89018 19086 ft 397 kts 143°
2026-04-20 19:06 50.77447 7.91693 19795 ft 402 kts 143°
2026-04-20 19:06 50.75248 7.94387 20471 ft 406 kts 142°
2026-04-20 19:06 50.73001 7.97163 21133 ft 410 kts 142°
2026-04-20 19:07 50.70745 7.99972 21768 ft 415 kts 142°
2026-04-20 19:07 50.68460 8.02826 22370 ft 419 kts 142°
2026-04-20 19:07 50.66195 8.05660 22830 ft 423 kts 142°
2026-04-20 19:07 50.63890 8.08540 22987 ft 424 kts 142°
2026-04-20 19:08 50.61579 8.11427 23001 ft 425 kts 142°
2026-04-20 19:08 50.56935 8.17210 23000 ft 426 kts 142°
2026-04-20 19:08 50.54612 8.20095 23000 ft 425 kts 142°
2026-04-20 19:09 50.52284 8.22983 23000 ft 425 kts 142°
2026-04-20 19:09 50.49962 8.25859 23000 ft 424 kts 142°
2026-04-20 19:09 50.47645 8.28724 23000 ft 424 kts 142°
2026-04-20 19:09 50.45329 8.31586 23000 ft 424 kts 142°
2026-04-20 19:10 50.43007 8.34449 22999 ft 424 kts 142°
2026-04-20 19:10 50.40685 8.37303 22999 ft 424 kts 143°
2026-04-20 19:10 50.38198 8.39797 23000 ft 423 kts 153°
2026-04-20 19:10 50.35547 8.41798 23001 ft 423 kts 156°
2026-04-20 19:11 50.32852 8.43658 23000 ft 424 kts 157°
2026-04-20 19:11 50.30136 8.45479 23000 ft 424 kts 157°
2026-04-20 19:11 50.27455 8.47256 22999 ft 424 kts 158°
2026-04-20 19:11 50.24734 8.49049 23001 ft 424 kts 158°
2026-04-20 19:12 50.21997 8.50847 23000 ft 425 kts 158°
2026-04-20 19:12 50.19277 8.52630 22999 ft 424 kts 158°
2026-04-20 19:12 50.16551 8.54414 23000 ft 423 kts 158°
2026-04-20 19:12 50.13832 8.56190 22999 ft 423 kts 158°
2026-04-20 19:13 50.11112 8.57965 23000 ft 423 kts 158°
2026-04-20 19:13 50.08399 8.59733 23001 ft 422 kts 158°
2026-04-20 19:13 50.05718 8.61478 22999 ft 422 kts 158°
2026-04-20 19:13 50.03009 8.63238 23000 ft 422 kts 158°
2026-04-20 19:14 50.00298 8.64998 23000 ft 422 kts 158°
2026-04-20 19:14 49.97582 8.66759 23000 ft 422 kts 158°
2026-04-20 19:14 49.94865 8.68518 23000 ft 422 kts 158°
2026-04-20 19:14 49.92152 8.70272 23000 ft 422 kts 158°
2026-04-20 19:15 49.89439 8.72025 22999 ft 422 kts 158°
2026-04-20 19:15 49.86726 8.73775 23000 ft 423 kts 158°
2026-04-20 19:15 49.84012 8.75524 23000 ft 423 kts 158°
2026-04-20 19:15 49.81290 8.77276 23000 ft 423 kts 158°
2026-04-20 19:16 49.78570 8.79024 23000 ft 423 kts 158°
2026-04-20 19:16 49.75844 8.80774 23000 ft 423 kts 158°
2026-04-20 19:16 49.73128 8.82516 22999 ft 423 kts 158°
2026-04-20 19:16 49.70406 8.84259 23000 ft 423 kts 158°
2026-04-20 19:17 49.67682 8.86001 23000 ft 423 kts 158°
2026-04-20 19:17 49.64964 8.87738 23000 ft 423 kts 158°
2026-04-20 19:17 49.62244 8.89473 23001 ft 424 kts 158°
2026-04-20 19:17 49.59551 8.91189 22978 ft 428 kts 158°
2026-04-20 19:18 49.56664 8.92612 22937 ft 442 kts 168°
2026-04-20 19:18 49.53597 8.93190 22720 ft 445 kts 177°
2026-04-20 19:18 49.50507 8.93400 22324 ft 444 kts 178°
2026-04-20 19:18 49.47424 8.93563 21923 ft 443 kts 178°
2026-04-20 19:19 49.44338 8.93722 21522 ft 440 kts 178°
2026-04-20 19:19 49.41301 8.93879 21118 ft 433 kts 178°
2026-04-20 19:19 49.38329 8.94034 20715 ft 421 kts 178°
2026-04-20 19:19 49.35423 8.94186 20309 ft 411 kts 178°
2026-04-20 19:20 49.32604 8.94334 19906 ft 401 kts 178°
2026-04-20 19:20 49.29853 8.94480 19509 ft 392 kts 179°
2026-04-20 19:20 49.27153 8.94624 19099 ft 383 kts 178°
2026-04-20 19:20 49.24551 8.94764 18699 ft 376 kts 178°
2026-04-20 19:21 49.21955 8.94904 18300 ft 369 kts 178°
2026-04-20 19:21 49.19416 8.95042 17896 ft 362 kts 178°
2026-04-20 19:21 49.16919 8.95178 17494 ft 356 kts 178°
2026-04-20 19:21 49.14466 8.95404 17093 ft 351 kts 173°
2026-04-20 19:22 49.12095 8.96195 16690 ft 347 kts 165°
2026-04-20 19:22 49.09782 8.97245 16288 ft 345 kts 163°
2026-04-20 19:22 49.07493 8.98312 15889 ft 344 kts 163°
2026-04-20 19:22 49.05207 8.99380 15487 ft 341 kts 163°
2026-04-20 19:23 49.02949 9.00435 15059 ft 337 kts 163°
2026-04-20 19:23 49.00719 9.01476 14584 ft 334 kts 163°
2026-04-20 19:23 48.98506 9.02509 14097 ft 328 kts 163°
2026-04-20 19:23 48.96353 9.03515 13616 ft 318 kts 163°
2026-04-20 19:24 48.94265 9.04491 13135 ft 310 kts 163°
2026-04-20 19:24 48.92233 9.05441 12654 ft 302 kts 163°
2026-04-20 19:24 48.90238 9.06375 12185 ft 296 kts 163°
2026-04-20 19:24 48.88315 9.07275 11700 ft 290 kts 163°
2026-04-20 19:25 48.86406 9.08170 11229 ft 285 kts 163°
2026-04-20 19:25 48.84527 9.09050 10748 ft 280 kts 164°
2026-04-20 19:25 48.82618 9.09414 10265 ft 274 kts 188°
2026-04-20 19:25 48.80857 9.08463 9786 ft 268 kts 215°
2026-04-20 19:26 48.79964 9.07205 9473 ft 264 kts 234°
2026-04-20 19:26 48.79141 9.04745 8996 ft 260 kts 250°
2026-04-20 19:26 48.78584 9.02148 8522 ft 258 kts 253°
2026-04-20 19:26 48.78064 8.99540 8041 ft 257 kts 253°
2026-04-20 19:27 48.77554 8.96953 7572 ft 255 kts 253°
2026-04-20 19:27 48.77045 8.94376 7144 ft 255 kts 253°
2026-04-20 19:27 48.76544 8.91845 6988 ft 245 kts 253°
2026-04-20 19:27 48.76069 8.89446 6889 ft 234 kts 253°
2026-04-20 19:28 48.75608 8.87120 6886 ft 229 kts 253°
2026-04-20 19:28 48.75136 8.84819 6888 ft 229 kts 249°
2026-04-20 19:28 48.74204 8.82894 6888 ft 229 kts 217°
2026-04-20 19:28 48.72732 8.82029 6891 ft 230 kts 186°
2026-04-20 19:29 48.71125 8.82090 6920 ft 231 kts 175°
2026-04-20 19:29 48.69523 8.82377 6897 ft 233 kts 174°
2026-04-20 19:29 48.67911 8.82692 6891 ft 234 kts 173°
2026-04-20 19:29 48.66297 8.83010 6789 ft 234 kts 173°
2026-04-20 19:30 48.64687 8.83327 6370 ft 233 kts 173°
2026-04-20 19:30 48.63094 8.83641 5891 ft 234 kts 173°
2026-04-20 19:30 48.61472 8.83960 5389 ft 235 kts 173°
2026-04-20 19:30 48.59872 8.84438 4879 ft 236 kts 158°
2026-04-20 19:31 48.58598 8.85937 4363 ft 233 kts 126°
2026-04-20 19:31 48.58077 8.88173 3986 ft 227 kts 91°
2026-04-20 19:31 48.58477 8.90442 3895 ft 227 kts 58°
2026-04-20 19:31 48.59438 8.92221 3875 ft 205 kts 45°
2026-04-20 19:32 48.60388 8.93663 3884 ft 187 kts 44°
2026-04-20 19:32 48.61308 8.95030 3890 ft 184 kts 43°
2026-04-20 19:32 48.62222 8.96386 3891 ft 184 kts 44°
2026-04-20 19:32 48.63137 8.97743 3820 ft 183 kts 43°
2026-04-20 19:33 48.64049 8.99097 3721 ft 183 kts 43°
2026-04-20 19:33 48.64961 9.00450 3622 ft 183 kts 43°
2026-04-20 19:33 48.65724 9.01980 3521 ft 184 kts 65°
2026-04-20 19:33 48.66131 9.03780 3445 ft 181 kts 74°
2026-04-20 19:34 48.66363 9.05675 3352 ft 182 kts 88°
2026-04-20 19:34 48.66218 9.07557 3171 ft 182 kts 100°
2026-04-20 19:34 48.66248 9.09450 2913 ft 182 kts 71°
2026-04-20 19:34 48.66726 9.11225 2648 ft 182 kts 66°
2026-04-20 19:35 48.67219 9.13017 2249 ft 187 kts 70°
2026-04-20 19:35 48.67602 9.14897 2036 ft 185 kts 75°
2026-04-20 19:35 48.67933 9.16666 1806 ft 165 kts 73°
2026-04-20 19:35 48.68241 9.18249 1619 ft 148 kts 72°
2026-04-20 19:36 48.68513 9.19681 1436 ft 136 kts 74°
2026-04-20 19:36 48.68765 9.21017 1299 ft 126 kts 74°
2026-04-20 19:36 48.68975 9.22126 1289 ft 76 kts 74°
2026-04-20 19:36 48.69064 9.22594 1289 ft 40 kts 74°
2026-04-20 19:37 48.69175 9.22954 1288 ft 26 kts 53°
2026-04-20 19:37 48.69299 9.23139 1288 ft 23 kts 31°
2026-04-20 19:37 48.69405 9.23061 1288 ft 13 kts 278°
2026-04-20 19:37 48.69406 9.23052 1288 ft 0 kts 270°
2026-04-20 19:39 48.69404 9.23033 1288 ft 5 kts 261°
2026-04-20 19:39 48.69390 9.22944 1288 ft 12 kts 256°
2026-04-20 19:39 48.69365 9.22795 1288 ft 18 kts 255°
2026-04-20 19:39 48.69325 9.22591 1288 ft 22 kts 252°
2026-04-20 19:40 48.69276 9.22344 1288 ft 27 kts 254°
2026-04-20 19:40 48.69220 9.22054 1288 ft 31 kts 253°
2026-04-20 19:40 48.69160 9.21739 1288 ft 31 kts 254°
2026-04-20 19:40 48.69107 9.21459 1288 ft 27 kts 255°
2026-04-20 19:41 48.69058 9.21182 1289 ft 28 kts 255°
2026-04-20 19:41 48.69002 9.20905 1288 ft 28 kts 254°
2026-04-20 19:41 48.68949 9.20622 1288 ft 28 kts 252°
2026-04-20 19:41 48.68893 9.20334 1288 ft 29 kts 254°
2026-04-20 19:42 48.68840 9.20052 1288 ft 16 kts 254°
2026-04-20 19:42 48.68793 9.19936 1288 ft 13 kts 230°
2026-04-20 19:42 48.68749 9.19807 1288 ft 17 kts 255°
2026-04-20 19:42 48.68707 9.19593 1288 ft 25 kts 252°
2026-04-20 19:43 48.68658 9.19321 1288 ft 27 kts 253°
2026-04-20 19:43 48.68679 9.19162 1288 ft 14 kts 338°
2026-04-20 19:43 48.68762 9.19171 1288 ft 11 kts 50°
2026-04-20 19:43 48.68786 9.19280 1288 ft 11 kts 74°
2026-04-20 19:44 48.68835 9.19305 1288 ft 8 kts 340°
2026-04-20 19:44 48.68870 9.19289 1288 ft 0 kts 344°